• In Moldova, Republic
  • List of Countries
  • For 7 days
  • Water Temperature
  • Satellite Maps
  • Weather Map
  • Weather Widgets
  • user-avatar
    Login

    Hourly Weather Drelow

    Today, 19 October, Friday

    Time Temperature Precipitation Wind Pressure Humidity
    00:00 +13°C° 0 mm 1 mps 750 mmHg 74%
    01:00 +13°C° 0 mm 1 mps 750 mmHg 75%
    02:00 +12°C° 0 mm 2 mps 750 mmHg 76%
    03:00 +12°C° 0 mm 2 mps 750 mmHg 77%
    04:00 +12°C° 0 mm 2 mps 750 mmHg 78%
    05:00 +10°C° 0 mm 2 mps 750 mmHg 78%
    06:00 +10°C° 0 mm 2 mps 751 mmHg 78%
    07:00 +10°C° 0 mm 2 mps 751 mmHg 78%
    08:00 +10°C° 0 mm 2 mps 751 mmHg 78%
    09:00 +13°C° 0 mm 2 mps 751 mmHg 71%
    10:00 +15°C° 0 mm 2 mps 751 mmHg 65%
    11:00 +17°C° 0 mm 2 mps 752 mmHg 58%
    12:00 +17°C° 0 mm 2 mps 752 mmHg 55%
    13:00 +18°C° 0 mm 3 mps 752 mmHg 53%
    14:00 +19°C° 0 mm 3 mps 752 mmHg 50%
    15:00 +18°C° 0 mm 3 mps 752 mmHg 54%
    16:00 +17°C° 0 mm 2 mps 752 mmHg 59%
    17:00 +16°C° 0 mm 2 mps 751 mmHg 63%
    18:00 +15°C° 0 mm 2 mps 752 mmHg 68%
    19:00 +14°C° 0 mm 2 mps 752 mmHg 72%
    20:00 +13°C° 0 mm 2 mps 753 mmHg 77%
    21:00 +13°C° 0 mm 2 mps 753 mmHg 81%
    22:00 +12°C° 0 mm 2 mps 753 mmHg 84%
    23:00 +10°C° 0 mm 2 mps 753 mmHg 88%

    Tomorrow, 20 October, Saturday

    Time Temperature Precipitation Wind Pressure Humidity
    00:00 +10°C° 0 mm 2 mps 753 mmHg 90%
    01:00 +10°C° 0 mm 2 mps 753 mmHg 92%
    02:00 +9°C° 0 mm 2 mps 754 mmHg 94%
    03:00 +9°C° 0 mm 2 mps 754 mmHg 95%
    04:00 +8°C° 0 mm 2 mps 753 mmHg 95%
    05:00 +9°C° 0 mm 1 mps 753 mmHg 96%
    06:00 +8°C° 0 mm 2 mps 754 mmHg 96%
    07:00 +8°C° 0 mm 2 mps 754 mmHg 96%
    08:00 +8°C° 0 mm 2 mps 754 mmHg 96%
    09:00 +9°C° 0 mm 2 mps 754 mmHg 87%
    10:00 +12°C° 0 mm 2 mps 755 mmHg 78%
    11:00 +13°C° 0 mm 2 mps 755 mmHg 69%
    12:00 +13°C° 0 mm 3 mps 755 mmHg 63%
    13:00 +13°C° 0 mm 3 mps 754 mmHg 56%
    14:00 +14°C° 0 mm 4 mps 754 mmHg 50%
    15:00 +13°C° 0 mm 3 mps 754 mmHg 52%
    16:00 +12°C° 0 mm 3 mps 754 mmHg 54%
    17:00 +13°C° 0 mm 2 mps 754 mmHg 56%
    18:00 +12°C° 0 mm 2 mps 754 mmHg 58%
    19:00 +10°C° 0 mm 2 mps 754 mmHg 60%
    20:00 +10°C° 0 mm 2 mps 754 mmHg 62%
    21:00 +10°C° 0 mm 2 mps 754 mmHg 63%
    22:00 +10°C° 0 mm 2 mps 754 mmHg 64%
    23:00 +10°C° 0 mm 2 mps 754 mmHg 66%

    Day after tomorrow, 21 October, Sunday

    Time Temperature Precipitation Wind Pressure Humidity
    00:00 +9°C° 0.1 mm 2 mps 754 mmHg 68%
    01:00 +9°C° 0.1 mm 2 mps 754 mmHg 70%
    02:00 +9°C° 0.1 mm 2 mps 754 mmHg 72%
    03:00 +8°C° 0.1 mm 2 mps 754 mmHg 75%
    04:00 +8°C° 0.1 mm 3 mps 753 mmHg 79%
    05:00 +8°C° 0.1 mm 3 mps 753 mmHg 83%
    06:00 +7°C° 0.1 mm 3 mps 754 mmHg 85%
    07:00 +7°C° 0.1 mm 3 mps 754 mmHg 87%
    08:00 +7°C° 0.1 mm 2 mps 754 mmHg 88%
    09:00 +8°C° 0.1 mm 3 mps 754 mmHg 82%
    10:00 +9°C° 0.1 mm 3 mps 754 mmHg 75%
    11:00 +10°C° 0.1 mm 3 mps 755 mmHg 68%
    12:00 +11°C° 0.1 mm 3 mps 755 mmHg 64%
    13:00 +11°C° 0.1 mm 3 mps 755 mmHg 59%
    14:00 +12°C° 0.1 mm 3 mps 755 mmHg 55%
    15:00 +11°C° 0 mm 3 mps 755 mmHg 57%
    16:00 +10°C° 0 mm 2 mps 755 mmHg 59%
    17:00 +10°C° 0 mm 2 mps 755 mmHg 61%
    18:00 +9°C° 0 mm 2 mps 755 mmHg 64%
    19:00 +9°C° 0 mm 1 mps 755 mmHg 66%
    20:00 +8°C° 0 mm 1 mps 756 mmHg 69%
    21:00 +8°C° 0 mm 1 mps 756 mmHg 71%
    22:00 +7°C° 0 mm 1 mps 756 mmHg 73%
    23:00 +7°C° 0 mm 1 mps 756 mmHg 75%

    22 October, Monday

    Time Temperature Precipitation Wind Pressure Humidity
    00:00 +6°C° 0 mm 1 mps 756 mmHg 77%
    01:00 +5°C° 0 mm 0 mps 756 mmHg 79%
    02:00 +5°C° 0 mm 0 mps 756 mmHg 81%
    03:00 +5°C° 0 mm 0 mps 756 mmHg 82%
    04:00 +4°C° 0 mm 0 mps 755 mmHg 83%
    05:00 +5°C° 0 mm 1 mps 755 mmHg 84%
    06:00 +5°C° 0 mm 1 mps 755 mmHg 83%
    07:00 +5°C° 0 mm 1 mps 755 mmHg 83%
    08:00 +5°C° 0 mm 1 mps 755 mmHg 82%
    09:00 +7°C° 0 mm 1 mps 755 mmHg 75%
    10:00 +9°C° 0 mm 1 mps 755 mmHg 68%
    11:00 +9°C° 0 mm 2 mps 755 mmHg 61%
    12:00 +10°C° 0 mm 2 mps 754 mmHg 57%
    13:00 +12°C° 0 mm 2 mps 754 mmHg 54%
    14:00 +13°C° 0 mm 2 mps 753 mmHg 51%
    15:00 +12°C° 0 mm 2 mps 753 mmHg 55%
    16:00 +10°C° 0 mm 2 mps 752 mmHg 58%
    17:00 +9°C° 0 mm 2 mps 752 mmHg 62%
    18:00 +9°C° 0 mm 2 mps 752 mmHg 65%
    19:00 +8°C° 0 mm 2 mps 752 mmHg 69%
    20:00 +7°C° 0 mm 2 mps 751 mmHg 73%
    21:00 +7°C° 0.1 mm 2 mps 751 mmHg 76%
    22:00 +7°C° 0.1 mm 2 mps 751 mmHg 80%
    23:00 +5°C° 0.1 mm 3 mps 751 mmHg 84%

    23 October, Tuesday

    Time Temperature Precipitation Wind Pressure Humidity
    00:00 +5°C° 0.3 mm 3 mps 751 mmHg 85%
    01:00 +7°C° 0.3 mm 3 mps 750 mmHg 87%
    02:00 +7°C° 0.3 mm 3 mps 750 mmHg 88%
    03:00 +7°C° 0.2 mm 3 mps 750 mmHg 87%
    04:00 +6°C° 0.2 mm 4 mps 750 mmHg 86%
    05:00 +5°C° 0.2 mm 4 mps 750 mmHg 86%
    06:00 +5°C° 0 mm 4 mps 750 mmHg 85%
    07:00 +5°C° 0 mm 4 mps 750 mmHg 85%
    08:00 +5°C° 0 mm 3 mps 750 mmHg 85%
    09:00 +6°C° 0 mm 4 mps 750 mmHg 79%
    10:00 +7°C° 0 mm 4 mps 750 mmHg 73%
    11:00 +8°C° 0 mm 4 mps 750 mmHg 67%
    12:00 +8°C° 0 mm 4 mps 750 mmHg 64%
    13:00 +10°C° 0 mm 4 mps 749 mmHg 61%
    14:00 +9°C° 0 mm 5 mps 749 mmHg 57%
    15:00 +10°C° 0 mm 4 mps 749 mmHg 59%
    16:00 +8°C° 0 mm 4 mps 748 mmHg 60%
    17:00 +8°C° 0 mm 4 mps 748 mmHg 62%
    18:00 +7°C° 0 mm 4 mps 748 mmHg 65%
    19:00 +7°C° 0 mm 4 mps 748 mmHg 67%
    20:00 +6°C° 0 mm 4 mps 748 mmHg 70%
    21:00 +6°C° 0 mm 4 mps 748 mmHg 73%
    22:00 +6°C° 0 mm 5 mps 747 mmHg 75%
    23:00 +6°C° 0 mm 5 mps 747 mmHg 78%

    24 October, Wednesday

    Time Temperature Precipitation Wind Pressure Humidity
    00:00 +5°C° 0 mm 5 mps 747 mmHg 82%
    01:00 +5°C° 0 mm 4 mps 746 mmHg 86%
    02:00 +5°C° 0 mm 4 mps 746 mmHg 90%
    03:00 +5°C° 0 mm 5 mps 745 mmHg 89%
    04:00 +5°C° 0 mm 5 mps 744 mmHg 87%
    05:00 +5°C° 0 mm 5 mps 743 mmHg 86%
    06:00 +5°C° 0.5 mm 7 mps 741 mmHg 85%
    07:00 +5°C° 0.5 mm 8 mps 740 mmHg 84%
    08:00 +6°C° 0.5 mm 9 mps 739 mmHg 83%
    09:00 +6°C° 1.1 mm 9 mps 738 mmHg 84%
    10:00 +7°C° 1.1 mm 9 mps 737 mmHg 85%
    11:00 +8°C° 1.1 mm 9 mps 736 mmHg 86%
    12:00 +8°C° 0.5 mm 9 mps 735 mmHg 84%
    13:00 +10°C° 0.5 mm 9 mps 735 mmHg 82%
    14:00 +11°C° 0.5 mm 9 mps 734 mmHg 80%
    15:00 +10°C° 0.3 mm 8 mps 734 mmHg 79%
    16:00 +10°C° 0.3 mm 7 mps 734 mmHg 77%
    17:00 +9°C° 0.3 mm 6 mps 735 mmHg 75%
    18:00 +9°C° 0.1 mm 7 mps 735 mmHg 72%
    19:00 +8°C° 0.1 mm 7 mps 735 mmHg 69%
    20:00 +6°C° 0.1 mm 7 mps 736 mmHg 65%
    21:00 +6°C° 0 mm 7 mps 736 mmHg 64%
    22:00 +6°C° 0 mm 8 mps 736 mmHg 63%
    23:00 +5°C° 0 mm 8 mps 737 mmHg 62%
    Show more